« Back
NWS Peachtree City, Ga » Text Product » GA Regional Weather Roundup


Printer-friendly Version
Current Version              Previous Versions:   1  2  3  4  5  6  7  8  9  

Regional Weather Roundup

996
ASUS42 KFFC 181003
RWRGA
WEATHER ROUNDUP FOR GEORGIA
NATIONAL WEATHER SERVICE PEACHTREE CITY GA
600 AM EDT FRI APR 18 2014

NOTE: "FAIR" INDICATES FEW OR NO CLOUDS BELOW 12,000 FEET WITH NO
SIGNIFICANT WEATHER AND/OR OBSTRUCTIONS TO VISIBILITY.

* = USE WITH CAUTION. THE STATIONS MARKED WITH AN ASTERISK MAY NOT
REPORT WEATHER SUCH AS PRECIPITATION, FOG, OR THUNDER AND ARE NOT
QUALITY CONTROLLED BY NWS.

THE REMARK "TC" DENOTES TEMPERATURE READING IN DEGREES CELSIUS.

GAZ001>058-181100-
NORTH GEORGIA

CITY           SKY/WX    TMP DP  RH WIND       PRES   REMARKS
ATLANTA        CLOUDY    55  38  52 E12       30.28R
ATHENS         CLOUDY    52  37  56 NE9       30.30S
CHAMBLEE       CLOUDY    54  34  46 E6        30.29S
PEACHTREE CITY CLOUDY    56  39  53 VRB5      30.28S
ROME           CLOUDY    55  39  54 N3        30.28S
WEST ATLANTA   CLOUDY    56  37  49 E9        30.28S
GAINESVILLE    CLOUDY    52  31  44 E10       30.32S
CARTERSVILLE   CLOUDY    55  35  47 E6        30.28F


CITY           SKY/WX    TMP DP  RH WIND       PRES   REMARKS
DALTON*        CLOUDY    55  36  47 CALM      30.29S
MARIETTA       CLOUDY    63  37  39 SE16      30.33S
$$

GAZ059>098-102>109-181100-
CENTRAL GEORGIA

CITY           SKY/WX    TMP DP  RH WIND       PRES   REMARKS
AUGUSTA-BUSH   CLOUDY    54  46  74 NE7       30.29S
AUGUSTA-DANIEL CLOUDY    55  47  74 NE10      30.29S
COLUMBUS       RAIN      53  50  89 E12       30.23S FOG
MACON          LGT RAIN  54  47  77 NE5       30.26S
ROBINS AFB     LGT RAIN  55  49  80 NW5       30.25S


CITY           SKY/WX    TMP DP  RH WIND       PRES   REMARKS
LAGRANGE*      CLOUDY    57  44  61 E3        30.25S
SYLVANIA*      CLOUDY    57  52  81 E8        30.26R
MILLEDGEVILLE* CLOUDY    55  36  47 NE5       30.28R
$$

GAZ099>101-110>166-181100-
SOUTH GEORGIA

CITY           SKY/WX    TMP DP  RH WIND       PRES   REMARKS
SAVANNAH       CLOUDY    62  54  74 E12G18    30.23R
VALDOSTA       RAIN      62  57  83 NE10      30.13S
ALMA           CLOUDY    57  51  80 NE6       30.16F
ST SIMONS      CLOUDY    61  60  97 NE14      30.16F
FT STEWART     CLOUDY    61  58  89 NE8       30.20S
ALBANY         RAIN      55  53  93 NE12      30.19F FOG
HUNTER AFB     CLOUDY    61  57  85 E12       30.21R
MOODY AFB      CLOUDY    59  58  99 VRB1      30.16R
BRUNSWICK      CLOUDY    61  61 100 NE13      30.19F


CITY           SKY/WX    TMP DP  RH WIND       PRES   REMARKS
BAINBRIDGE*    RAIN      59  57  94 NE13      30.12F
MOULTRIE*      RAIN      55  55 100 NE8       30.15F
VIDALIA*       CLOUDY    55  52  88 NE9       30.23S
DOUGLAS*       CLOUDY    57  54  88 NE12      30.16F
$$



USA.gov is the U.S. government's official web portal to all federal, state and local government web resources and services.